Regional Weather Roundup
Issued by NWS Burlington, VT

Home | Current Version | Previous Version | Text Only | Print | Product List | Glossary On
Versions: 1 2 3 4 5 6 7 8 9 10 11 12 13 14 15 16 17 18 19 20 21 22 23 24 25 26 27 28 29 30 31 32 33 34 35 36 37 38 39 40 41 42 43 44 45 46 47 48 49 50
000
ASUS41 KBTV 301130
RWRBTV
VERMONT REGIONAL WEATHER ROUNDUP
NATIONAL WEATHER SERVICE BURLINGTON VT
700 AM EDT SAT APR 30 2016

NOTE: "FAIR" INDICATES FEW OR NO CLOUDS BELOW 12,000 FEET WITH NO
SIGNIFICANT WEATHER AND/OR OBSTRUCTIONS TO VISIBILITY.

* THESE REPORTS ARE NOT UNDER NWS QUALITY CONTROL AND/OR DO NOT
  REPORT WEATHER SUCH AS PRECIPITATION AND FOG.

VTZ001>019-301200-
_____VERMONT_____


CITY           SKY/WX    TMP DP  RH WIND       PRES   REMARKS
BURLINGTON     FAIR      36  24  62 CALM      30.23R
MONTPELIER     FAIR      35  24  64 CALM      30.23R
MORRISVILLE    FAIR      31  24  75 CALM      30.23R
ST. JOHNSBURY*   N/A     32  24  72 MISG      30.20R
LYNDONVILLE*   FAIR      37  20  50 CALM      30.21R
MIDDLEBURY*    FAIR      35  28  76 CALM      30.21S
RUTLAND*       FAIR      36  28  75 SE5       30.22R WCI  32
SPRINGFIELD    FAIR      37  32  82 CALM      30.21R
HIGHGATE*      FAIR      36  21  54 N5        30.24S
NEWPORT*       FAIR      32  23  70 SW3       30.22R
BENNINGTON     CLOUDY    45  37  73 CALM      30.20R
SUTTON*          N/A     37 N/A N/A MISG        N/A
GALLUP MILLS*    N/A     28 N/A N/A MISG        N/A
UNION VILLAGE*   N/A     34 N/A N/A MISG        N/A
MT. MANSFIELD*   N/A     34 N/A N/A S7          N/A  WCI  28

_____LAKE CHAMPLAIN_____


CITY           SKY/WX    TMP DP  RH WIND       PRES   REMARKS
COLCHESTER RF*   N/A     41  27  56 N12         N/A
DIAMOND ISL*     N/A     43  21  42 N13         N/A

$$

NYZ007-026>031-035-052-083-087-301200-
_____NORTHERN NEW YORK_____


CITY           SKY/WX    TMP DP  RH WIND       PRES   REMARKS
PLATTSBURGH    SUNNY     39  18  42 CALM      30.23R
SARANAC LAKE   SUNNY     27  19  72 CALM      30.18R
MASSENA        SUNNY     32  27  81 NE5       30.27R WCI  27
OGDENSBURG*    SUNNY     37  34  87 CALM      30.25R
STARK FALLS*     N/A     41 N/A N/A E3          N/A
WATERTOWN      MOSUNNY   35  28  75 NE5       30.22R WCI  31
FT DRUM        SUNNY     38  26  62 SE3       30.20R
ALBANY         CLOUDY    46  39  76 CALM      30.22R
GLENS FALLS    CLOUDY    42  29  59 CALM      30.22R

$$
NHZ002-005-011-301200-
_____NEW HAMPSHIRE_____


CITY           SKY/WX    TMP DP  RH WIND       PRES   REMARKS
LEBANON        SUNNY     39  31  72 NW3       30.21R
KEENE          CLOUDY    43  34  70 CALM      30.21R
MT WASHINGTON  MOSUNNY   25  18  74 W23         N/A  WCI  10
PLYMOUTH       FAIR      33  33 100 CALM      30.22R
WHITEFIELD     PTSUNNY   31  25  78 CALM      30.19R

$$

_____REGIONAL QUEBEC LOCATIONS_____


CITY           SKY/WX    TMP DP  RH WIND       PRES   REMARKS
MONTREAL       MOSUNNY   39  19  45 NE7       30.26R
QUEBEC CITY    PTSUNNY   34  14  44 N6        30.26R WCI  29
SHERBROOKE     SUNNY     28  21  74 VRB2      30.20R

_____REGIONAL ONTARIO LOCATIONS_____


CITY           SKY/WX    TMP DP  RH WIND       PRES   REMARKS
OTTAWA         MOSUNNY   37  23  56 NE8       30.26R WCI  31

______KEY______
VSB  - VISIBILITY IN MILES
WCI  - WIND CHILL INDEX
HX   - HEAT INDEX
$$
NNNN



USA.gov is the U.S. government's official web portal to all federal, state and local government web resources and services.